Location: Pella
(41.4080°N, 92.9160°W)
Time: 19:38:10
(UTC-06:00)

ISS - Visible Passes

Search period start: 18 December 2018 00:00
Search period end: 28 December 2018 00:00
Orbit: 401 x 408 km, 51.6° (Epoch: 19 December)

Date Brightness Start Highest point End Pass type
(mag) Time Alt. Az. Time Alt. Az. Time Alt. Az.
22 Dec -0.4 06:13:15 10° SSE 06:14:38 12° SE 06:16:01 10° ESE visible
23 Dec -3.0 06:55:16 10° SW 06:58:30 56° SE 07:01:43 10° ENE visible
24 Dec -1.7 06:03:29 10° SSW 06:06:22 28° SE 06:09:15 10° ENE visible
25 Dec -0.9 05:13:02 13° SSE 05:14:18 15° SE 05:16:19 10° E visible
25 Dec -3.8 06:47:12 10° WSW 06:50:27 61° NNW 06:53:43 10° NE visible
26 Dec -3.7 05:56:52 32° SW 05:58:12 71° SE 06:01:29 10° ENE visible
27 Dec -1.3 05:07:33 22° E 05:07:33 22° E 05:09:03 10° ENE visible
27 Dec -2.9 06:40:15 15° W 06:42:30 31° NNW 06:45:30 10° NE visible
